Terminal Aerodrome Forecast
Issued by NWS Springfield, MO

Home | Current Version | Previous Version | Text Only | Print | Product List | Glossary On
Versions: 1 2 3 4 5 6 7 8 9 10 11 12 13 14 15 16 17 18 19 20 21 22 23 24 25 26 27 28 29 30 31 32 33 34 35 36 37 38 39 40 41 42
000
FTUS43 KSGF 302333
TAFSGF
TAF
KSGF 302333Z 0100/0124 22015G25KT P6SM VCSH BKN050
     FM010500 22013G23KT P6SM VCSH OVC030
     FM010700 23015G24KT P6SM OVC015
     FM011300 25014G25KT P6SM OVC020
     FM011900 27018G30KT P6SM SCT040=

USA.gov is the U.S. government's official web portal to all federal, state and local government web resources and services.